Overview Statistics Trail Chart Weather Telemetry Raw packets
 

This is the latest recevied weather packets stored in our database for station/object OE6JUE. If no packets are shown the sender has not sent any weather packets the latest 10 day(s).

<< 38 39 40 41 42 43 44 >>
Time Temp. Humidity Pressure Rain* Wind** Luminosity Snow
1788427882 25.56° C 50% 1022.9 hPa 0 mm - - -
1788427581 25.56° C 50% 1023 hPa 0 mm - - -
1788427282 25.56° C 49% 1023 hPa 0 mm - - -
1788426981 26.11° C 47% 1023 hPa 0 mm - - -
1788426681 26.67° C 50% 1023.1 hPa 0 mm - - -
1788426381 27.22° C 51% 1023 hPa 0 mm - - -
1788426081 26.67° C 50% 1023.3 hPa 0 mm - - -
1788425781 26.67° C 50% 1023.2 hPa 0 mm - - -
1788425481 26.67° C 53% 1023.2 hPa 0 mm - - -
1788425181 25.56° C 52% 1023.2 hPa 0 mm - - -
1788424881 25.56° C 52% 1023.2 hPa 0 mm - - -
1788424581 25° C 57% 1023.1 hPa 0 mm - - -
1788424281 24.44° C 59% 1023.1 hPa 0 mm - - -
1788423981 23.89° C 59% 1023.1 hPa 0 mm - - -
1788423681 23.33° C 61% 1023 hPa 0 mm - - -
1788423381 23.33° C 62% 1023 hPa 0 mm - - -
1788423081 22.78° C 63% 1023.1 hPa 0 mm - - -
1788422781 22.78° C 63% 1023.1 hPa 0 mm - - -
1788422481 22.78° C 64% 1023.1 hPa 0 mm - - -
1788422181 22.78° C 64% 1023 hPa 0 mm - - -
1788421881 22.22° C 66% 1023.1 hPa 0 mm - - -
1788421581 21.67° C 71% 1023.2 hPa 0 mm - - -
1788421281 21.11° C 71% 1023.1 hPa 0 mm - - -
1788420981 21.11° C 70% 1023.1 hPa 0 mm - - -
1788420681 21.67° C 70% 1023.1 hPa 0 mm - - -

* Rain latest hour (hover to see other rain measurements)
** Current wind speed in m/s (hover to see current wind gust speed)